Location: Bacea
(45.9500°N, 22.6667°E)
Time: 08:31:56
(UTC+00:00)

Tiangong - Visible Passes

Search period start: 29 January 2022 00:00
Search period end: 08 February 2022 00:00
Orbit: 381 x 387 km, 41.5° (Epoch: 28 January)

Date Brightness Start Highest point End Pass type
(mag) Time Alt. Az. Time Alt. Az. Time Alt. Az.
29 Jan 3.3 16:27:07 10° SSW 16:29:13 16° SSE 16:31:12 10° ESE visible
29 Jan 4.0 18:02:38 10° WSW 18:03:25 15° SW 18:03:25 15° SW visible
30 Jan 2.4 17:03:02 10° SW 17:05:50 29° SSE 17:06:30 26° SE visible
31 Jan 2.9 16:03:34 10° SW 16:06:08 23° SSE 16:08:42 10° ESE visible
31 Jan 2.7 17:39:36 10° WSW 17:41:45 30° SW 17:41:45 30° SW visible
01 Feb 2.3 16:39:51 10° WSW 16:42:46 34° S 16:44:46 17° ESE visible
01 Feb 4.3 18:16:23 10° WSW 18:16:58 14° WSW 18:16:58 14° WSW visible
02 Feb 2.2 17:16:30 10° WSW 17:19:27 35° S 17:19:58 32° SSE visible
03 Feb 2.3 16:16:39 10° WSW 16:19:36 36° S 16:22:34 10° ESE visible
03 Feb 3.3 17:53:23 10° WSW 17:55:12 21° SW 17:55:12 21° SW visible
04 Feb 2.6 16:53:22 10° WSW 16:56:12 30° S 16:58:15 15° SE visible
05 Feb 3.4 17:30:25 10° WSW 17:32:41 18° SSW 17:33:34 16° S visible
06 Feb 3.1 16:30:11 10° WSW 16:32:50 24° SSW 16:35:28 10° SE visible
07 Feb 4.0 17:07:44 10° SW 17:09:10 12° SSW 17:10:35 10° S visible
